QPF
0.00 0.00 0.00 0.03 0.05 0.03 0.02 0.02 0.02 0.01 0.01 0.01 0.01 0.00 0.01 0.01 0.03 0.08 0.04 0.02 0.02 0.02 0.02 0.01 0.01 0.01 0.01 0.01 0.01 0.01 0.01 0.02 0.02 0.02 0.01 0.01 0.00 0.00 0.00 0.00 0.00 0.00 0.00 0.00 0.00 0.00 0.00 0.00 0.00
0.00 0.00 0.00 0.02 0.04 0.02 0.02 0.02 0.03 0.02 0.01 0.01 0.00 0.00 0.01 0.01 0.01 0.03 0.01 0.01 0.01 0.02 0.03 0.02 0.01 0.01 0.01 0.01 0.01 0.01 0.01 0.01 0.02 0.02 0.02 0.01 0.01 0.00 0.00 0.00 0.01 0.01 0.01 0.01 0.00 0.00 0.00 0.00 0.00
0.00 0.00 0.01 0.02 0.02 0.02 0.03 0.03 0.03 0.02 0.00 0.00 0.00 0.01 0.01 0.01 0.02 0.02 0.01 0.01 0.01 0.03 0.03 0.02 0.01 0.01 0.01 0.02 0.02 0.02 0.02 0.02 0.02 0.02 0.02 0.02 0.02 0.01 0.01 0.01 0.01 0.01 0.01 0.01 0.01 0.00 0.00 0.01 0.01
0.00 0.00 0.00 0.01 0.01 0.01 0.01 0.01 0.01 0.00 0.00 0.00 0.00 0.01 0.01 0.01 0.02 0.01 0.00 0.01 0.01 0.03 0.03 0.02 0.01 0.01 0.02 0.02 0.03 0.03 0.02 0.02 0.03 0.03 0.02 0.02 0.02 0.02 0.02 0.01 0.01 0.01 0.01 0.01 0.01 0.01 0.01 0.01 0.01
0.00 0.00 0.01 0.01 0.01 0.01 0.01 0.01 0.00 0.00 0.01 0.01 0.01 0.01 0.01 0.01 0.01 0.01 0.00 0.00 0.02 0.04 0.04 0.02 0.01 0.01 0.01 0.02 0.03 0.03 0.02 0.02 0.03 0.03 0.03 0.03 0.02 0.02 0.02 0.02 0.01 0.01 0.01 0.01 0.01 0.02 0.02 0.02 0.02
0.00 0.01 0.01 0.01 0.01 0.01 0.01 0.01 0.01 0.01 0.01 0.01 0.01 0.01 0.03 0.05 0.03 0.01 0.01 0.02 0.04 0.04 0.05 0.04 0.02 0.02 0.02 0.02 0.03 0.03 0.02 0.03 0.04 0.04 0.03 0.02 0.02 0.02 0.02 0.02 0.01 0.01 0.01 0.01 0.01 0.02 0.03 0.03 0.02
0.01 0.01 0.01 0.01 0.01 0.01 0.01 0.00 0.00 0.01 0.01 0.01 0.01 0.01 0.03 0.04 0.02 0.01 0.02 0.03 0.03 0.04 0.05 0.05 0.03 0.02 0.01 0.02 0.03 0.04 0.03 0.04 0.05 0.05 0.04 0.04 0.03 0.02 0.02 0.01 0.01 0.02 0.03 0.03 0.02 0.03 0.02 0.02 0.02
0.01 0.00 0.01 0.00 0.02 0.02 0.01 0.00 0.00 0.00 0.01 0.01 0.02 0.02 0.02 0.01 0.01 0.02 0.03 0.04 0.03 0.04 0.05 0.06 0.04 0.03 0.02 0.02 0.03 0.04 0.03 0.03 0.03 0.03 0.04 0.04 0.03 0.03 0.03 0.02 0.02 0.02 0.03 0.02 0.02 0.02 0.01 0.02 0.02
0.01 0.01 0.02 0.01 0.01 0.02 0.01 0.00 0.00 0.01 0.02 0.02 0.01 0.01 0.01 0.01 0.01 0.01 0.02 0.03 0.03 0.04 0.06 0.07 0.06 0.05 0.06 0.07 0.05 0.05 0.03 0.03 0.02 0.02 0.03 0.03 0.03 0.02 0.03 0.02 0.02 0.02 0.02 0.03 0.02 0.02 0.02 0.02 0.01
0.00 0.01 0.02 0.01 0.01 0.02 0.01 0.00 0.00 0.01 0.03 0.03 0.01 0.01 0.02 0.04 0.03 0.02 0.01 0.01 0.01 0.04 0.06 0.06 0.05 0.05 0.09 0.14 0.13 0.09 0.06 0.04 0.03 0.03 0.03 0.03 0.04 0.03 0.02 0.02 0.02 0.03 0.03 0.03 0.03 0.02 0.03 0.02 0.02
0.01 0.01 0.02 0.02 0.02 0.01 0.01 0.00 0.00 0.01 0.03 0.02 0.01 0.01 0.01 0.04 0.04 0.03 0.02 0.02 0.02 0.03 0.06 0.07 0.05 0.06 0.10 0.16 0.16 0.14 0.10 0.08 0.07 0.06 0.05 0.05 0.06 0.04 0.03 0.04 0.05 0.05 0.04 0.04 0.04 0.05 0.03 0.02 0.02
0.02 0.01 0.01 0.01 0.00 0.00 0.00 0.00 0.01 0.01 0.02 0.01 0.01 0.01 0.01 0.01 0.03 0.03 0.02 0.02 0.02 0.03 0.04 0.06 0.07 0.07 0.10 0.12 0.13 0.14 0.11 0.09 0.09 0.10 0.07 0.06 0.06 0.05 0.05 0.05 0.07 0.07 0.06 0.06 0.06 0.06 0.04 0.03 0.03
0.01 0.01 0.01 0.01 0.01 0.00 0.01 0.01 0.01 0.01 0.01 0.02 0.03 0.04 0.02 0.02 0.04 0.05 0.04 0.02 0.02 0.03 0.04 0.07 0.10 0.08 0.09 0.09 0.10 0.10 0.09 0.08 0.08 0.07 0.05 0.05 0.05 0.05 0.06 0.06 0.08 0.07 0.06 0.05 0.05 0.05 0.04 0.04 0.05
0.00 0.01 0.02 0.01 0.01 0.01 0.00 0.01 0.01 0.02 0.02 0.02 0.03 0.05 0.05 0.04 0.03 0.04 0.05 0.05 0.03 0.02 0.03 0.07 0.10 0.10 0.09 0.07 0.09 0.09 0.07 0.09 0.08 0.09 0.05 0.04 0.05 0.06 0.07 0.07 0.09 0.07 0.06 0.06 0.06 0.05 0.05 0.05 0.05
0.00 0.01 0.02 0.01 0.01 0.01 0.01 0.01 0.01 0.02 0.02 0.03 0.03 0.03 0.05 0.05 0.03 0.03 0.04 0.07 0.06 0.03 0.04 0.06 0.09 0.10 0.09 0.09 0.10 0.09 0.09 0.09 0.07 0.08 0.08 0.06 0.05 0.06 0.07 0.08 0.08 0.07 0.06 0.06 0.07 0.06 0.06 0.05 0.05
0.02 0.04 0.04 0.03 0.01 0.00 0.02 0.04 0.03 0.02 0.03 0.03 0.03 0.04 0.06 0.07 0.04 0.03 0.03 0.02 0.04 0.03 0.04 0.06 0.07 0.07 0.08 0.11 0.11 0.08 0.09 0.11 0.09 0.08 0.08 0.07 0.07 0.07 0.08 0.08 0.08 0.08 0.07 0.07 0.08 0.08 0.08 0.08 0.07
0.02 0.03 0.03 0.02 0.02 0.01 0.01 0.04 0.03 0.02 0.02 0.02 0.02 0.03 0.06 0.10 0.07 0.04 0.02 0.01 0.02 0.03 0.04 0.04 0.06 0.07 0.07 0.08 0.08 0.10 0.11 0.13 0.11 0.10 0.09 0.09 0.09 0.08 0.09 0.08 0.09 0.09 0.08 0.08 0.07 0.08 0.08 0.08 0.08
0.01 0.01 0.02 0.02 0.01 0.01 0.02 0.02 0.03 0.02 0.01 0.01 0.02 0.02 0.04 0.06 0.05 0.03 0.02 0.01 0.02 0.03 0.04 0.06 0.07 0.08 0.09 0.09 0.10 0.11 0.11 0.12 0.14 0.11 0.09 0.08 0.08 0.07 0.06 0.07 0.08 0.08 0.08 0.09 0.08 0.08 0.07 0.07 0.07
0.01 0.01 0.01 0.02 0.01 0.01 0.02 0.03 0.04 0.02 0.02 0.01 0.01 0.01 0.02 0.03 0.03 0.02 0.02 0.01 0.02 0.04 0.05 0.06 0.07 0.08 0.09 0.10 0.10 0.08 0.09 0.09 0.09 0.07 0.06 0.07 0.06 0.05 0.05 0.07 0.09 0.08 0.09 0.10 0.10 0.08 0.08 0.08 0.08
0.02 0.02 0.02 0.02 0.01 0.02 0.01 0.02 0.02 0.02 0.02 0.02 0.02 0.02 0.03 0.03 0.04 0.03 0.02 0.02 0.02 0.04 0.04 0.05 0.07 0.07 0.09 0.10 0.09 0.08 0.09 0.07 0.07 0.08 0.09 0.08 0.08 0.08 0.07 0.09 0.09 0.08 0.09 0.08 0.08 0.10 0.11 0.10 0.10
0.02 0.02 0.02 0.02 0.01 0.01 0.02 0.03 0.03 0.02 0.01 0.01 0.01 0.02 0.03 0.03 0.04 0.03 0.03 0.03 0.03 0.04 0.04 0.05 0.05 0.05 0.07 0.10 0.09 0.09 0.08 0.06 0.07 0.08 0.10 0.09 0.09 0.11 0.12 0.12 0.10 0.09 0.07 0.08 0.08 0.08 0.08 0.08 0.08
0.01 0.01 0.00 0.00 0.02 0.03 0.02 0.06 0.05 0.03 0.03 0.03 0.03 0.02 0.03 0.03 0.03 0.02 0.03 0.04 0.04 0.04 0.05 0.07 0.07 0.07 0.08 0.09 0.10 0.09 0.08 0.08 0.09 0.09 0.09 0.10 0.10 0.11 0.12 0.12 0.12 0.12 0.09 0.09 0.07 0.07 0.07 0.07 0.07
0.01 0.01 0.01 0.00 0.02 0.03 0.02 0.07 0.07 0.03 0.04 0.05 0.08 0.03 0.03 0.03 0.02 0.02 0.02 0.03 0.03 0.05 0.06 0.06 0.07 0.08 0.09 0.09 0.09 0.09 0.10 0.10 0.10 0.10 0.10 0.09 0.09 0.10 0.09 0.09 0.09 0.11 0.10 0.08 0.06 0.06 0.06 0.06 0.05
0.00 0.01 0.01 0.01 0.04 0.06 0.02 0.05 0.07 0.04 0.05 0.09 0.10 0.04 0.04 0.05 0.04 0.05 0.03 0.03 0.03 0.06 0.07 0.07 0.07 0.10 0.12 0.12 0.12 0.12 0.11 0.11 0.11 0.10 0.10 0.09 0.07 0.08 0.07 0.07 0.07 0.06 0.07 0.06 0.05 0.05 0.05 0.06 0.05
0.00 0.02 0.06 0.09 0.09 0.07 0.02 0.03 0.05 0.05 0.05 0.08 0.10 0.05 0.05 0.07 0.06 0.07 0.06 0.05 0.06 0.09 0.08 0.08 0.09 0.11 0.13 0.14 0.13 0.12 0.10 0.08 0.08 0.07 0.06 0.08 0.07 0.07 0.07 0.06 0.05 0.05 0.05 0.05 0.05 0.06 0.06 0.06 0.06
0.01 0.02 0.05 0.08 0.08 0.06 0.03 0.05 0.05 0.04 0.03 0.04 0.06 0.04 0.04 0.06 0.07 0.06 0.07 0.06 0.06 0.08 0.10 0.09 0.10 0.12 0.13 0.14 0.13 0.10 0.08 0.08 0.09 0.09 0.08 0.07 0.06 0.05 0.05 0.05 0.03 0.03 0.03 0.04 0.06 0.07 0.06 0.06 0.07
0.01 0.02 0.03 0.03 0.03 0.06 0.06 0.05 0.04 0.03 0.02 0.04 0.04 0.03 0.04 0.06 0.06 0.06 0.06 0.05 0.05 0.06 0.08 0.10 0.10 0.11 0.10 0.11 0.13 0.11 0.09 0.11 0.11 0.11 0.10 0.08 0.08 0.06 0.05 0.04 0.04 0.04 0.05 0.06 0.07 0.07 0.07 0.08 0.09
0.01 0.01 0.01 0.03 0.06 0.07 0.06 0.07 0.06 0.04 0.04 0.05 0.04 0.04 0.04 0.05 0.06 0.08 0.08 0.06 0.05 0.05 0.06 0.06 0.07 0.08 0.07 0.06 0.06 0.06 0.08 0.11 0.12 0.12 0.10 0.08 0.07 0.06 0.04 0.04 0.04 0.04 0.04 0.06 0.07 0.07 0.07 0.08 0.08
0.00 0.01 0.01 0.02 0.04 0.08 0.08 0.08 0.06 0.05 0.04 0.05 0.05 0.04 0.03 0.04 0.06 0.09 0.07 0.06 0.06 0.04 0.03 0.03 0.03 0.04 0.05 0.04 0.05 0.05 0.07 0.08 0.08 0.07 0.06 0.06 0.07 0.07 0.06 0.05 0.04 0.04 0.05 0.06 0.07 0.07 0.06 0.07 0.06
0.00 0.01 0.01 0.03 0.05 0.04 0.08 0.07 0.07 0.09 0.04 0.03 0.04 0.03 0.02 0.03 0.04 0.04 0.04 0.04 0.04 0.03 0.04 0.03 0.02 0.03 0.04 0.05 0.06 0.06 0.06 0.06 0.06 0.06 0.07 0.07 0.07 0.05 0.04 0.05 0.06 0.06 0.07 0.08 0.08 0.08 0.07 0.06 0.04
MSLP
1005.44 1005.85 1006.26 1006.56 1006.66 1006.53 1006.20 1005.76 1005.31 1004.96 1004.75 1004.68 1004.70 1004.70 1004.59 1004.30 1003.81 1003.20 1002.57 1002.06 1001.81 1001.88 1002.28 1002.97 1003.81 1004.67 1005.43 1006.00 1006.39 1006.62 1006.79 1006.98 1007.28 1007.72 1008.28 1008.91 1009.53 1010.08 1010.51 1010.81 1011.02 1011.19 1011.40 1011.68 1012.05 1012.51 1013.00 1013.46 1013.86
1005.51 1005.96 1006.36 1006.59 1006.59 1006.33 1005.87 1005.31 1004.77 1004.33 1004.06 1003.93 1003.89 1003.83 1003.66 1003.33 1002.84 1002.26 1001.72 1001.34 1001.25 1001.50 1002.09 1002.93 1003.90 1004.83 1005.62 1006.19 1006.55 1006.74 1006.87 1007.05 1007.35 1007.81 1008.40 1009.06 1009.71 1010.26 1010.66 1010.93 1011.08 1011.20 1011.36 1011.61 1011.98 1012.44 1012.96 1013.47 1013.91
1005.75 1006.21 1006.55 1006.68 1006.53 1006.12 1005.51 1004.83 1004.18 1003.67 1003.33 1003.14 1003.03 1002.90 1002.68 1002.31 1001.80 1001.25 1000.78 1000.52 1000.57 1000.99 1001.75 1002.75 1003.84 1004.87 1005.72 1006.31 1006.67 1006.85 1006.97 1007.13 1007.43 1007.90 1008.50 1009.17 1009.82 1010.36 1010.76 1011.00 1011.13 1011.22 1011.36 1011.59 1011.95 1012.42 1012.96 1013.49 1013.96
1006.11 1006.54 1006.80 1006.79 1006.48 1005.92 1005.19 1004.39 1003.67 1003.09 1002.70 1002.46 1002.30 1002.11 1001.83 1001.42 1000.90 1000.36 999.94 999.77 999.94 1000.49 1001.38 1002.50 1003.70 1004.82 1005.73 1006.36 1006.75 1006.94 1007.07 1007.23 1007.53 1007.99 1008.58 1009.24 1009.89 1010.44 1010.83 1011.08 1011.21 1011.30 1011.44 1011.67 1012.02 1012.49 1013.02 1013.55 1014.01
1006.51 1006.88 1007.02 1006.87 1006.43 1005.74 1004.91 1004.05 1003.28 1002.69 1002.29 1002.03 1001.84 1001.62 1001.29 1000.84 1000.30 999.76 999.37 999.24 999.47 1000.10 1001.07 1002.27 1003.53 1004.71 1005.67 1006.36 1006.78 1007.01 1007.15 1007.33 1007.62 1008.06 1008.64 1009.30 1009.93 1010.49 1010.90 1011.17 1011.33 1011.46 1011.61 1011.84 1012.18 1012.62 1013.12 1013.62 1014.06
1006.84 1007.12 1007.13 1006.86 1006.30 1005.52 1004.65 1003.79 1003.05 1002.50 1002.13 1001.90 1001.71 1001.49 1001.15 1000.67 1000.11 999.57 999.17 999.05 999.29 999.92 1000.90 1002.11 1003.39 1004.59 1005.58 1006.30 1006.76 1007.03 1007.20 1007.39 1007.68 1008.12 1008.67 1009.31 1009.94 1010.50 1010.95 1011.26 1011.47 1011.63 1011.81 1012.04 1012.37 1012.77 1013.22 1013.67 1014.06
1007.01 1007.16 1007.05 1006.66 1006.02 1005.22 1004.36 1003.56 1002.90 1002.45 1002.17 1002.02 1001.89 1001.69 1001.37 1000.91 1000.34 999.79 999.38 999.23 999.43 1000.00 1000.92 1002.06 1003.29 1004.46 1005.44 1006.18 1006.67 1006.98 1007.19 1007.40 1007.70 1008.12 1008.66 1009.27 1009.89 1010.45 1010.92 1011.28 1011.54 1011.75 1011.96 1012.20 1012.51 1012.87 1013.25 1013.63 1013.96
1006.96 1006.98 1006.74 1006.25 1005.57 1004.77 1003.98 1003.29 1002.77 1002.46 1002.31 1002.27 1002.24 1002.12 1001.86 1001.44 1000.90 1000.35 999.92 999.72 999.84 1000.31 1001.10 1002.12 1003.23 1004.32 1005.25 1005.99 1006.50 1006.85 1007.10 1007.35 1007.66 1008.07 1008.58 1009.16 1009.75 1010.32 1010.80 1011.19 1011.50 1011.75 1011.99 1012.24 1012.53 1012.84 1013.17 1013.49 1013.76
1006.71 1006.58 1006.21 1005.64 1004.94 1004.19 1003.49 1002.94 1002.59 1002.44 1002.46 1002.56 1002.65 1002.64 1002.47 1002.12 1001.65 1001.13 1000.69 1000.44 1000.46 1000.78 1001.41 1002.25 1003.20 1004.16 1005.02 1005.72 1006.25 1006.63 1006.94 1007.22 1007.55 1007.95 1008.44 1008.98 1009.55 1010.09 1010.57 1010.98 1011.32 1011.61 1011.87 1012.13 1012.40 1012.69 1012.97 1013.24 1013.47
1006.31 1006.03 1005.54 1004.91 1004.20 1003.51 1002.93 1002.52 1002.33 1002.36 1002.53 1002.78 1003.01 1003.13 1003.08 1002.84 1002.46 1002.00 1001.57 1001.28 1001.19 1001.37 1001.80 1002.43 1003.19 1003.99 1004.74 1005.39 1005.92 1006.35 1006.70 1007.04 1007.39 1007.80 1008.27 1008.77 1009.29 1009.80 1010.26 1010.67 1011.02 1011.33 1011.62 1011.89 1012.17 1012.44 1012.70 1012.94 1013.15
1005.84 1005.43 1004.84 1004.16 1003.46 1002.83 1002.36 1002.10 1002.06 1002.22 1002.54 1002.93 1003.28 1003.53 1003.61 1003.51 1003.24 1002.87 1002.48 1002.16 1001.99 1002.01 1002.24 1002.66 1003.22 1003.84 1004.47 1005.05 1005.58 1006.04 1006.45 1006.84 1007.24 1007.66 1008.10 1008.57 1009.04 1009.50 1009.93 1010.32 1010.67 1011.00 1011.30 1011.60 1011.89 1012.17 1012.44 1012.67 1012.88
1005.40 1004.88 1004.22 1003.50 1002.83 1002.27 1001.90 1001.75 1001.83 1002.11 1002.54 1003.02 1003.49 1003.85 1004.06 1004.09 1003.95 1003.68 1003.36 1003.04 1002.80 1002.70 1002.75 1002.96 1003.31 1003.75 1004.25 1004.77 1005.28 1005.77 1006.23 1006.68 1007.12 1007.55 1007.99 1008.42 1008.84 1009.25 1009.63 1010.00 1010.35 1010.68 1011.01 1011.34 1011.66 1011.97 1012.25 1012.51 1012.72
1005.06 1004.45 1003.75 1003.03 1002.40 1001.92 1001.64 1001.59 1001.75 1002.11 1002.60 1003.15 1003.68 1004.13 1004.44 1004.60 1004.59 1004.43 1004.18 1003.90 1003.62 1003.42 1003.32 1003.35 1003.51 1003.79 1004.17 1004.61 1005.10 1005.60 1006.11 1006.61 1007.08 1007.54 1007.96 1008.36 1008.74 1009.10 1009.44 1009.78 1010.12 1010.46 1010.82 1011.18 1011.54 1011.88 1012.20 1012.49 1012.72
1004.83 1004.19 1003.48 1002.80 1002.23 1001.84 1001.65 1001.68 1001.91 1002.31 1002.82 1003.39 1003.94 1004.44 1004.82 1005.07 1005.17 1005.12 1004.96 1004.71 1004.43 1004.17 1003.96 1003.85 1003.86 1004.00 1004.26 1004.63 1005.09 1005.60 1006.13 1006.66 1007.16 1007.63 1008.04 1008.42 1008.75 1009.07 1009.37 1009.69 1010.02 1010.38 1010.76 1011.16 1011.56 1011.95 1012.30 1012.61 1012.87
1004.70 1004.06 1003.39 1002.78 1002.31 1002.02 1001.93 1002.04 1002.32 1002.74 1003.24 1003.78 1004.32 1004.81 1005.22 1005.52 1005.69 1005.73 1005.65 1005.46 1005.20 1004.92 1004.65 1004.44 1004.34 1004.37 1004.54 1004.85 1005.26 1005.76 1006.30 1006.84 1007.35 1007.82 1008.22 1008.56 1008.87 1009.14 1009.42 1009.71 1010.04 1010.41 1010.82 1011.24 1011.68 1012.10 1012.49 1012.82 1013.09
1004.60 1003.99 1003.40 1002.90 1002.56 1002.40 1002.43 1002.63 1002.96 1003.37 1003.84 1004.32 1004.80 1005.24 1005.62 1005.93 1006.15 1006.25 1006.23 1006.10 1005.88 1005.60 1005.31 1005.06 1004.90 1004.86 1004.97 1005.21 1005.59 1006.06 1006.59 1007.12 1007.63 1008.07 1008.46 1008.77 1009.04 1009.29 1009.54 1009.82 1010.14 1010.52 1010.94 1011.38 1011.84 1012.28 1012.69 1013.03 1013.29
1004.47 1003.93 1003.44 1003.09 1002.91 1002.91 1003.08 1003.37 1003.74 1004.15 1004.56 1004.96 1005.34 1005.69 1006.01 1006.27 1006.48 1006.60 1006.63 1006.56 1006.39 1006.15 1005.89 1005.64 1005.46 1005.39 1005.46 1005.67 1006.01 1006.46 1006.96 1007.47 1007.95 1008.37 1008.72 1009.01 1009.25 1009.47 1009.69 1009.95 1010.27 1010.64 1011.06 1011.51 1011.97 1012.42 1012.82 1013.15 1013.40
1004.28 1003.82 1003.47 1003.28 1003.29 1003.46 1003.78 1004.17 1004.58 1004.98 1005.33 1005.63 1005.88 1006.11 1006.31 1006.49 1006.65 1006.76 1006.81 1006.78 1006.67 1006.49 1006.28 1006.07 1005.92 1005.86 1005.93 1006.13 1006.45 1006.88 1007.35 1007.84 1008.29 1008.69 1009.01 1009.26 1009.47 1009.66 1009.86 1010.10 1010.39 1010.74 1011.15 1011.58 1012.03 1012.45 1012.83 1013.14 1013.36
1004.00 1003.65 1003.45 1003.45 1003.65 1004.01 1004.47 1004.96 1005.42 1005.80 1006.08 1006.26 1006.37 1006.44 1006.50 1006.57 1006.64 1006.71 1006.75 1006.75 1006.70 1006.59 1006.45 1006.32 1006.22 1006.21 1006.31 1006.53 1006.86 1007.27 1007.73 1008.20 1008.64 1009.01 1009.30 1009.53 1009.71 1009.87 1010.04 1010.25 1010.51 1010.82 1011.19 1011.59 1012.00 1012.38 1012.72 1013.00 1013.19
1003.66 1003.44 1003.40 1003.59 1003.99 1004.53 1005.13 1005.72 1006.23 1006.58 1006.78 1006.84 1006.80 1006.71 1006.60 1006.52 1006.48 1006.48 1006.50 1006.51 1006.50 1006.47 1006.42 1006.37 1006.36 1006.42 1006.57 1006.83 1007.19 1007.62 1008.09 1008.56 1008.98 1009.35 1009.63 1009.85 1010.00 1010.14 1010.27 1010.43 1010.65 1010.91 1011.23 1011.57 1011.92 1012.26 1012.55 1012.78 1012.94
1003.32 1003.24 1003.38 1003.76 1004.34 1005.05 1005.79 1006.47 1007.00 1007.33 1007.45 1007.39 1007.20 1006.94 1006.67 1006.44 1006.27 1006.19 1006.16 1006.17 1006.20 1006.22 1006.25 1006.30 1006.38 1006.52 1006.74 1007.06 1007.46 1007.93 1008.42 1008.91 1009.36 1009.74 1010.03 1010.24 1010.39 1010.49 1010.59 1010.70 1010.86 1011.06 1011.31 1011.58 1011.87 1012.15 1012.39 1012.58 1012.70
1003.03 1003.11 1003.43 1004.00 1004.76 1005.62 1006.48 1007.23 1007.79 1008.10 1008.15 1007.98 1007.65 1007.24 1006.81 1006.43 1006.15 1005.97 1005.89 1005.88 1005.93 1006.00 1006.10 1006.22 1006.38 1006.60 1006.89 1007.27 1007.72 1008.23 1008.77 1009.30 1009.79 1010.20 1010.51 1010.74 1010.88 1010.97 1011.03 1011.09 1011.18 1011.31 1011.48 1011.69 1011.91 1012.12 1012.32 1012.47 1012.57
1002.84 1003.09 1003.60 1004.35 1005.27 1006.27 1007.23 1008.05 1008.64 1008.93 1008.93 1008.68 1008.24 1007.70 1007.14 1006.64 1006.24 1005.98 1005.84 1005.81 1005.85 1005.96 1006.10 1006.27 1006.49 1006.77 1007.11 1007.54 1008.04 1008.59 1009.18 1009.76 1010.28 1010.74 1011.09 1011.34 1011.49 1011.56 1011.59 1011.61 1011.63 1011.69 1011.78 1011.91 1012.07 1012.23 1012.39 1012.52 1012.60
1002.75 1003.18 1003.87 1004.79 1005.86 1006.98 1008.05 1008.93 1009.56 1009.85 1009.83 1009.53 1009.03 1008.40 1007.74 1007.14 1006.65 1006.31 1006.12 1006.06 1006.10 1006.21 1006.37 1006.58 1006.83 1007.13 1007.50 1007.95 1008.47 1009.05 1009.67 1010.28 1010.85 1011.34 1011.73 1012.01 1012.18 1012.25 1012.25 1012.22 1012.19 1012.18 1012.20 1012.27 1012.37 1012.49 1012.61 1012.73 1012.81
1002.75 1003.36 1004.22 1005.28 1006.49 1007.73 1008.88 1009.84 1010.52 1010.86 1010.85 1010.54 1010.01 1009.33 1008.62 1007.96 1007.41 1007.01 1006.78 1006.68 1006.70 1006.81 1006.98 1007.19 1007.45 1007.75 1008.11 1008.55 1009.06 1009.63 1010.25 1010.87 1011.47 1011.99 1012.41 1012.71 1012.90 1012.97 1012.96 1012.90 1012.82 1012.75 1012.72 1012.73 1012.78 1012.86 1012.97 1013.08 1013.17
1002.80 1003.57 1004.56 1005.76 1007.07 1008.41 1009.66 1010.71 1011.47 1011.87 1011.92 1011.65 1011.13 1010.46 1009.73 1009.04 1008.45 1008.02 1007.75 1007.63 1007.64 1007.74 1007.90 1008.10 1008.34 1008.62 1008.95 1009.34 1009.81 1010.34 1010.92 1011.53 1012.11 1012.64 1013.08 1013.41 1013.61 1013.69 1013.68 1013.60 1013.49 1013.38 1013.29 1013.26 1013.27 1013.32 1013.41 1013.52 1013.62
1002.86 1003.74 1004.84 1006.12 1007.53 1008.95 1010.29 1011.43 1012.29 1012.79 1012.93 1012.74 1012.28 1011.65 1010.94 1010.26 1009.66 1009.21 1008.93 1008.80 1008.80 1008.89 1009.04 1009.23 1009.45 1009.69 1009.96 1010.29 1010.68 1011.14 1011.66 1012.21 1012.76 1013.28 1013.72 1014.05 1014.27 1014.38 1014.37 1014.29 1014.16 1014.03 1013.91 1013.83 1013.81 1013.83 1013.90 1013.99 1014.09
1002.88 1003.83 1004.99 1006.32 1007.77 1009.26 1010.68 1011.91 1012.88 1013.50 1013.76 1013.69 1013.33 1012.77 1012.11 1011.45 1010.87 1010.42 1010.13 1010.00 1010.00 1010.10 1010.26 1010.45 1010.64 1010.85 1011.08 1011.33 1011.64 1012.01 1012.44 1012.92 1013.41 1013.89 1014.32 1014.66 1014.90 1015.02 1015.04 1014.98 1014.85 1014.71 1014.56 1014.45 1014.38 1014.37 1014.40 1014.47 1014.56
1002.86 1003.82 1004.97 1006.30 1007.76 1009.27 1010.74 1012.06 1013.14 1013.89 1014.29 1014.35 1014.12 1013.66 1013.08 1012.46 1011.91 1011.48 1011.20 1011.08 1011.10 1011.22 1011.40 1011.60 1011.80 1012.00 1012.19 1012.39 1012.62 1012.90 1013.24 1013.63 1014.05 1014.48 1014.89 1015.24 1015.50 1015.65 1015.71 1015.68 1015.57 1015.42 1015.26 1015.12 1015.00 1014.93 1014.92 1014.94 1014.99
1002.80 1003.71 1004.81 1006.08 1007.50 1009.00 1010.49 1011.88 1013.05 1013.93 1014.47 1014.68 1014.57 1014.23 1013.73 1013.18 1012.67 1012.26 1012.00 1011.91 1011.95 1012.11 1012.33 1012.57 1012.81 1013.02 1013.20 1013.37 1013.55 1013.76 1014.02 1014.33 1014.69 1015.07 1015.46 1015.81 1016.09 1016.29 1016.40 1016.40 1016.32 1016.19 1016.01 1015.83 1015.67 1015.54 1015.45 1015.40 1015.40
Thickness
5805 5809 5812 5808 5794 5787 5792 5814 5827 5826 5827 5835 5838 5833 5821 5812 5802 5788 5816 5830 5826 5819 5813 5807 5803 5800 5797 5794 5791 5788 5785 5782 5780 5777 5775 5773 5771 5769 5767 5765 5764 5762 5760 5759 5757 5756 5754 5753 5752
5807 5813 5809 5799 5782 5776 5795 5818 5820 5819 5830 5836 5835 5830 5821 5812 5816 5814 5819 5825 5824 5817 5811 5806 5801 5797 5794 5791 5788 5785 5782 5779 5777 5774 5772 5770 5768 5766 5764 5762 5760 5759 5757 5756 5754 5753 5752 5751 5750
5805 5811 5798 5791 5783 5785 5797 5816 5817 5823 5833 5831 5824 5824 5817 5807 5812 5814 5820 5824 5820 5814 5808 5802 5798 5795 5791 5788 5785 5782 5779 5777 5774 5771 5769 5766 5764 5762 5761 5759 5757 5756 5754 5753 5751 5750 5749 5748 5747
5803 5802 5796 5785 5783 5805 5812 5819 5823 5822 5826 5829 5822 5812 5814 5818 5817 5819 5823 5822 5816 5811 5805 5798 5795 5791 5788 5785 5782 5779 5777 5774 5771 5768 5765 5763 5761 5759 5757 5756 5754 5752 5751 5750 5748 5747 5747 5746 5745
5800 5791 5777 5776 5788 5808 5821 5825 5826 5818 5817 5821 5818 5804 5800 5815 5821 5822 5821 5819 5813 5809 5803 5795 5791 5788 5785 5782 5779 5777 5774 5771 5768 5765 5762 5760 5758 5756 5754 5752 5751 5749 5748 5747 5746 5744 5744 5743 5742
5788 5787 5769 5773 5789 5808 5819 5826 5823 5816 5816 5818 5814 5800 5795 5811 5814 5816 5818 5815 5813 5807 5801 5793 5787 5784 5782 5779 5776 5773 5770 5767 5765 5762 5760 5757 5755 5753 5751 5749 5748 5746 5745 5744 5743 5742 5741 5740 5740
5781 5779 5773 5782 5790 5799 5813 5824 5817 5811 5809 5811 5815 5797 5794 5804 5811 5815 5815 5813 5810 5805 5798 5790 5785 5781 5778 5775 5773 5770 5767 5764 5762 5759 5757 5754 5752 5751 5749 5747 5745 5744 5742 5741 5740 5739 5738 5738 5737
5794 5782 5777 5784 5787 5794 5813 5818 5818 5812 5804 5816 5814 5794 5788 5801 5812 5812 5810 5808 5806 5800 5795 5790 5785 5780 5776 5773 5769 5767 5764 5761 5758 5756 5754 5751 5749 5748 5746 5744 5742 5741 5740 5739 5738 5737 5736 5736 5735
5797 5772 5768 5781 5787 5795 5809 5807 5811 5816 5806 5804 5808 5803 5800 5804 5807 5803 5799 5798 5796 5794 5791 5788 5784 5780 5777 5773 5768 5764 5760 5758 5755 5752 5750 5748 5747 5746 5744 5743 5740 5739 5737 5736 5736 5735 5734 5733 5733
5787 5765 5772 5790 5797 5796 5801 5801 5803 5800 5792 5790 5794 5798 5801 5799 5796 5792 5789 5786 5785 5785 5786 5786 5782 5778 5776 5772 5766 5762 5759 5755 5753 5751 5748 5746 5746 5745 5744 5741 5739 5737 5735 5734 5733 5733 5732 5731 5732
5783 5772 5782 5792 5799 5798 5796 5796 5799 5788 5780 5784 5785 5789 5792 5789 5787 5785 5783 5783 5782 5782 5779 5780 5778 5775 5772 5769 5764 5761 5758 5754 5752 5749 5747 5745 5744 5743 5741 5738 5736 5734 5733 5732 5732 5731 5730 5731 5731
5779 5781 5786 5789 5796 5793 5791 5792 5789 5787 5785 5793 5792 5790 5787 5782 5781 5780 5779 5778 5778 5777 5775 5774 5772 5769 5767 5764 5761 5758 5756 5752 5750 5747 5745 5743 5742 5740 5739 5737 5735 5733 5732 5731 5730 5729 5729 5728 5728
5775 5778 5786 5790 5791 5790 5788 5785 5783 5783 5790 5792 5789 5784 5780 5776 5776 5776 5776 5775 5773 5770 5770 5767 5766 5763 5761 5759 5757 5755 5753 5750 5748 5745 5742 5741 5739 5737 5735 5734 5733 5731 5730 5729 5728 5727 5726 5725 5725
5777 5778 5779 5782 5783 5785 5780 5781 5780 5778 5786 5782 5779 5775 5773 5771 5768 5769 5768 5766 5765 5764 5763 5762 5761 5758 5755 5753 5752 5750 5749 5746 5744 5741 5739 5737 5735 5733 5732 5731 5730 5728 5727 5726 5725 5724 5722 5722 5721
5778 5767 5768 5775 5777 5780 5778 5765 5771 5777 5778 5773 5771 5770 5769 5767 5767 5764 5763 5761 5760 5759 5759 5756 5755 5753 5751 5748 5746 5746 5744 5742 5740 5738 5736 5733 5731 5730 5728 5727 5725 5724 5723 5723 5722 5721 5719 5718 5717
5765 5755 5749 5766 5775 5780 5767 5747 5768 5775 5769 5765 5766 5766 5763 5761 5761 5762 5762 5759 5758 5755 5753 5752 5752 5749 5746 5744 5742 5741 5740 5738 5736 5734 5731 5729 5727 5725 5724 5723 5722 5720 5720 5719 5717 5715 5713 5712 5712
5749 5742 5747 5759 5773 5774 5764 5750 5763 5772 5766 5761 5762 5760 5756 5753 5755 5758 5758 5756 5754 5752 5749 5747 5746 5744 5741 5739 5738 5737 5735 5733 5731 5729 5727 5725 5723 5722 5720 5718 5717 5716 5715 5714 5713 5711 5709 5707 5706
5742 5748 5754 5756 5768 5767 5757 5753 5758 5765 5765 5759 5758 5756 5752 5749 5750 5753 5753 5753 5751 5748 5745 5744 5742 5739 5737 5735 5733 5732 5729 5728 5727 5725 5722 5720 5719 5718 5716 5715 5713 5712 5710 5708 5706 5705 5704 5703 5702
5759 5753 5752 5758 5771 5762 5754 5750 5754 5759 5761 5755 5752 5751 5748 5747 5749 5750 5749 5748 5746 5743 5740 5738 5735 5733 5731 5728 5726 5724 5722 5722 5722 5721 5718 5716 5715 5714 5712 5710 5709 5707 5705 5703 5701 5699 5698 5697 5697
5759 5752 5753 5762 5772 5764 5753 5749 5756 5758 5758 5756 5750 5747 5745 5744 5743 5743 5743 5742 5741 5738 5735 5733 5731 5729 5727 5725 5723 5721 5720 5719 5718 5717 5715 5713 5711 5710 5708 5706 5704 5702 5699 5698 5696 5694 5691 5692 5692
5755 5751 5752 5753 5763 5766 5754 5742 5748 5755 5756 5751 5749 5745 5743 5740 5737 5737 5737 5736 5735 5733 5731 5731 5728 5725 5723 5721 5719 5717 5715 5714 5712 5711 5709 5708 5707 5705 5703 5702 5700 5697 5695 5692 5691 5689 5686 5684 5686
5749 5764 5762 5759 5750 5746 5753 5729 5739 5746 5743 5740 5738 5740 5739 5738 5735 5734 5730 5729 5730 5730 5730 5728 5725 5722 5720 5717 5714 5711 5707 5705 5706 5706 5705 5704 5703 5701 5700 5698 5695 5693 5690 5688 5686 5685 5683 5681 5678
5760 5771 5766 5761 5753 5745 5749 5733 5732 5741 5732 5732 5733 5736 5736 5736 5735 5731 5729 5727 5728 5728 5727 5725 5722 5719 5716 5713 5711 5707 5704 5703 5703 5702 5701 5700 5699 5698 5696 5694 5692 5689 5686 5684 5683 5681 5679 5677 5674
5772 5765 5760 5758 5749 5726 5741 5732 5725 5731 5730 5729 5730 5732 5731 5731 5730 5727 5726 5726 5725 5725 5724 5721 5718 5715 5712 5710 5707 5704 5701 5699 5697 5696 5696 5696 5695 5693 5691 5689 5687 5685 5682 5680 5679 5677 5674 5672 5670
5764 5745 5726 5718 5718 5721 5747 5736 5724 5735 5738 5734 5729 5728 5728 5726 5724 5723 5722 5722 5720 5718 5718 5717 5714 5710 5709 5706 5704 5701 5698 5696 5694 5693 5692 5691 5689 5687 5686 5685 5683 5681 5679 5677 5675 5672 5669 5668 5666
5753 5745 5720 5705 5711 5726 5740 5729 5729 5740 5738 5734 5731 5728 5726 5724 5723 5722 5720 5719 5718 5716 5714 5713 5710 5707 5705 5703 5700 5698 5696 5695 5693 5691 5690 5688 5686 5684 5683 5681 5679 5677 5675 5674 5671 5668 5666 5664 5662
5752 5748 5756 5736 5730 5723 5730 5730 5730 5737 5730 5727 5726 5725 5723 5721 5720 5718 5716 5715 5715 5714 5712 5709 5706 5704 5702 5700 5697 5695 5694 5692 5690 5688 5687 5684 5682 5681 5679 5677 5675 5673 5671 5669 5667 5664 5662 5660 5657
5767 5761 5749 5732 5715 5707 5717 5721 5716 5718 5721 5722 5721 5721 5721 5720 5718 5715 5712 5713 5711 5709 5707 5706 5703 5700 5698 5697 5695 5693 5691 5689 5687 5685 5682 5680 5678 5676 5675 5673 5671 5670 5667 5665 5663 5660 5658 5655 5653
5757 5754 5746 5738 5731 5711 5700 5707 5726 5720 5720 5721 5722 5722 5721 5719 5717 5714 5711 5710 5706 5706 5703 5700 5699 5697 5695 5694 5692 5690 5687 5686 5684 5681 5679 5677 5675 5673 5671 5670 5668 5666 5664 5662 5659 5656 5654 5651 5648
5764 5756 5748 5725 5720 5723 5708 5703 5728 5725 5725 5725 5724 5724 5723 5721 5719 5715 5712 5709 5705 5703 5701 5697 5696 5694 5693 5692 5690 5687 5685 5682 5680 5678 5676 5675 5672 5671 5669 5668 5666 5664 5662 5659 5656 5653 5650 5647 5644